| time (UTC) | temp C | wind direction | speed KPH | gust KPH | rain 1hr cm | rain 24hr cm | rain mn cm | humidity % | barometer mb |
| 20260507151530 | 20 | 222 | 8.0 | 14.5 | 0.00 | 6.71 | 0.00 | 60 | 1012.6 |
| 20260507151030 | 20 | 217 | 4.8 | 12.9 | 0.00 | 6.71 | 0.00 | 61 | 1012.4 |
| 20260507150513 | 21 | 207 | 4.8 | 11.3 | 0.00 | 6.71 | 0.00 | 63 | 1012.2 |
| 20260507150026 | 21 | 204 | 6.4 | 12.9 | 0.00 | 6.71 | 0.00 | 62 | 1011.9 |
| 20260507145528 | 21 | 199 | 4.8 | 12.9 | 0.00 | 6.71 | 0.00 | 58 | 1011.7 |
| 20260507145029 | 21 | 213 | 4.8 | 16.1 | 0.00 | 6.71 | 0.00 | 58 | 1011.7 |
| 20260507144512 | 21 | 221 | 4.8 | 11.3 | 0.00 | 6.71 | 0.00 | 59 | 1011.6 |
| 20260507144031 | 22 | 223 | 8.0 | 11.3 | 0.00 | 6.71 | 0.00 | 55 | 1011.5 |
| 20260507143517 | 22 | 242 | 3.2 | 11.3 | 0.00 | 6.71 | 0.00 | 56 | 1011.5 |
| 20260507143045 | 22 | 215 | 4.8 | 12.9 | 0.00 | 6.71 | 0.00 | 52 | 1011.5 |
| 20260507142533 | 21 | 203 | 6.4 | 12.9 | 0.00 | 6.71 | 0.00 | 52 | 1011.5 |
| 20260507142011 | 21 | 227 | 6.4 | 12.9 | 0.00 | 6.71 | 0.00 | 56 | 1011.5 |
| 20260507141514 | 21 | 208 | 4.8 | 9.7 | 0.00 | 6.71 | 0.00 | 53 | 1011.5 |
| 20260507141012 | 21 | 202 | 3.2 | 8.0 | 0.00 | 6.71 | 0.00 | 53 | 1011.4 |
| 20260507140516 | 21 | 215 | 1.6 | 9.7 | 0.00 | 6.71 | 0.00 | 55 | 1011.5 |
| 20260507140029 | 22 | 215 | 4.8 | 14.5 | 0.00 | 6.71 | 0.00 | 50 | 1011.5 |
| 20260507135512 | 22 | 203 | 8.0 | 14.5 | 0.00 | 6.71 | 0.00 | 53 | 1011.5 |
| 20260507135011 | 22 | 209 | 3.2 | 11.3 | 0.00 | 6.71 | 0.00 | 53 | 1011.5 |
| 20260507134515 | 22 | 211 | 8.0 | 11.3 | 0.00 | 6.71 | 0.00 | 52 | 1011.6 |
| 20260507134016 | 22 | 196 | 4.8 | 9.7 | 0.00 | 6.71 | 0.00 | 52 | 1011.6 |
| 20260507133518 | 22 | 216 | 3.2 | 8.0 | 0.00 | 6.71 | 0.00 | 51 | 1011.6 |
| 20260507133031 | 22 | 217 | 3.2 | 11.3 | 0.00 | 6.71 | 0.00 | 47 | 1011.8 |
| 20260507132513 | 22 | 204 | 6.4 | 12.9 | 0.00 | 6.71 | 0.00 | 52 | 1011.7 |
| 20260507132017 | 22 | 196 | 8.0 | 12.9 | 0.00 | 6.71 | 0.00 | 55 | 1011.7 |
| 20260507131540 | 22 | 199 | 1.6 | 11.3 | 0.00 | 6.71 | 0.00 | 61 | 1011.7 |
| 20260507131019 | 21 | 204 | 3.2 | 14.5 | 0.00 | 6.71 | 0.00 | 60 | 1011.8 |
| 20260507130522 | 22 | 227 | 6.4 | 14.5 | 0.00 | 6.71 | 0.00 | 59 | 1011.8 |
| 20260507130014 | 22 | 215 | 3.2 | 11.3 | 0.00 | 7.59 | 0.00 | 60 | 1011.8 |
| 20260507125518 | 22 | 209 | 4.8 | 12.9 | 0.00 | 7.59 | 0.00 | 59 | 1011.9 |
| 20260507125017 | 22 | 219 | 6.4 | 12.9 | 0.00 | 7.59 | 0.00 | 57 | 1011.9 |
| 20260507124522 | 22 | 234 | 6.4 | 12.9 | 0.00 | 7.59 | 0.00 | 59 | 1011.9 |
| 20260507124022 | 22 | 214 | 4.8 | 9.7 | 0.00 | 7.59 | 0.00 | 60 | 1011.9 |
| 20260507123545 | 22 | 211 | 1.6 | 9.7 | 0.00 | 7.59 | 0.00 | 60 | 1011.8 |
| 20260507123018 | 22 | 205 | 3.2 | 8.0 | 0.00 | 7.59 | 0.00 | 58 | 1011.8 |
| 20260507122543 | 21 | 205 | 4.8 | 8.0 | 0.00 | 7.59 | 0.00 | 57 | 1011.9 |
| 20260507122044 | 21 | 240 | 1.6 | 9.7 | 0.00 | 7.59 | 0.00 | 61 | 1011.9 |
| 20260507121546 | 21 | 234 | 4.8 | 9.7 | 0.00 | 7.59 | 0.00 | 61 | 1011.9 |
| 20260507121045 | 21 | 211 | 4.8 | 11.3 | 0.00 | 7.59 | 0.00 | 61 | 1012.0 |
| 20260507120548 | 21 | 227 | 4.8 | 14.5 | 0.00 | 7.59 | 0.00 | 62 | 1012.0 |
| 20260507120021 | 21 | 211 | 8.0 | 16.1 | 0.00 | 8.51 | 0.00 | 59 | 1012.1 |
| 20260507115524 | 21 | 205 | 6.4 | 16.1 | 0.00 | 8.51 | 0.00 | 57 | 1012.1 |
| 20260507115023 | 21 | 203 | 4.8 | 9.7 | 0.00 | 8.51 | 0.00 | 60 | 1012.1 |
| 20260507114546 | 21 | 202 | 4.8 | 11.3 | 0.00 | 8.51 | 0.00 | 60 | 1012.1 |
| 20260507114023 | 21 | 234 | 6.4 | 11.3 | 0.00 | 8.51 | 0.00 | 59 | 1012.1 |
| 20260507113527 | 22 | 209 | 3.2 | 11.3 | 0.00 | 8.51 | 0.00 | 59 | 1012.2 |
| 20260507113019 | 21 | 195 | 3.2 | 12.9 | 0.00 | 8.51 | 0.00 | 60 | 1012.2 |
| 20260507112522 | 21 | 194 | 6.4 | 16.1 | 0.00 | 8.51 | 0.00 | 62 | 1012.3 |
| 20260507112023 | 21 | 207 | 4.8 | 14.5 | 0.00 | 8.51 | 0.00 | 60 | 1012.3 |
| 20260507111530 | 21 | 196 | 6.4 | 12.9 | 0.00 | 8.51 | 0.00 | 63 | 1012.4 |
| 20260507111029 | 21 | 209 | 3.2 | 11.3 | 0.00 | 8.51 | 0.00 | 63 | 1012.3 |
| 20260507110513 | 21 | 216 | 6.4 | 11.3 | 0.00 | 8.51 | 0.00 | 63 | 1012.3 |
| 20260507110024 | 21 | 223 | 4.8 | 14.5 | 0.00 | 8.89 | 0.00 | 63 | 1012.3 |
| 20260507105525 | 21 | 217 | 6.4 | 14.5 | 0.00 | 8.89 | 0.00 | 67 | 1012.4 |
| 20260507105024 | 20 | 200 | 3.2 | 14.5 | 0.00 | 8.89 | 0.00 | 66 | 1012.5 |
| 20260507104526 | 21 | 198 | 8.0 | 16.1 | 0.00 | 8.89 | 0.00 | 65 | 1012.6 |
| 20260507104026 | 21 | 250 | 4.8 | 16.1 | 0.00 | 8.89 | 0.00 | 66 | 1012.6 |
| 20260507103530 | 21 | 217 | 3.2 | 12.9 | 0.00 | 8.89 | 0.00 | 66 | 1012.6 |
| 20260507103021 | 21 | 216 | 4.8 | 12.9 | 0.00 | 8.89 | 0.00 | 67 | 1012.6 |
| 20260507102525 | 21 | 193 | 3.2 | 8.0 | 0.00 | 8.89 | 0.00 | 65 | 1012.5 |
| 20260507102026 | 21 | 157 | 1.6 | 9.7 | 0.00 | 8.89 | 0.00 | 64 | 1012.6 |
| 20260507101527 | 21 | 207 | 4.8 | 14.5 | 0.00 | 8.89 | 0.00 | 64 | 1012.6 |
| 20260507101026 | 21 | 209 | 6.4 | 14.5 | 0.00 | 8.89 | 0.00 | 65 | 1012.7 |
| 20260507100530 | 20 | 203 | 6.4 | 12.9 | 0.00 | 8.89 | 0.00 | 68 | 1012.7 |
| 20260507100022 | 20 | 232 | 6.4 | 12.9 | 0.00 | 8.99 | 0.00 | 69 | 1012.7 |
| 20260507095529 | 20 | 186 | 6.4 | 12.9 | 0.00 | 8.99 | 0.00 | 70 | 1012.6 |
| 20260507095050 | 20 | 204 | 3.2 | 9.7 | 0.00 | 8.99 | 0.00 | 71 | 1012.6 |
| 20260507094532 | 19 | 232 | 3.2 | 11.3 | 0.00 | 8.99 | 0.00 | 72 | 1012.6 |
| 20260507094012 | 19 | 236 | 6.4 | 12.9 | 0.00 | 8.99 | 0.00 | 71 | 1012.6 |
| 20260507093515 | 19 | 247 | 4.8 | 12.9 | 0.00 | 8.99 | 0.00 | 70 | 1012.6 |
| 20260507093026 | 20 | 221 | 4.8 | 12.9 | 0.00 | 8.99 | 0.00 | 70 | 1012.6 |
| 20260507092530 | 20 | 221 | 8.0 | 12.9 | 0.00 | 8.99 | 0.00 | 72 | 1012.6 |
| 20260507092028 | 20 | 202 | 4.8 | 14.5 | 0.00 | 8.99 | 0.00 | 72 | 1012.6 |
| 20260507091530 | 19 | 199 | 4.8 | 14.5 | 0.00 | 8.99 | 0.00 | 75 | 1012.6 |
| 20260507091031 | 19 | 238 | 8.0 | 12.9 | 0.00 | 8.99 | 0.00 | 77 | 1012.5 |
| 20260507090533 | 18 | 228 | 3.2 | 6.4 | 0.00 | 8.99 | 0.00 | 81 | 1012.5 |
| 20260507090024 | 18 | 225 | 3.2 | 9.7 | 0.00 | 10.11 | 0.00 | 82 | 1012.5 |
| 20260507085525 | 18 | 224 | 4.8 | 9.7 | 0.00 | 10.11 | 0.00 | 81 | 1012.5 |
| 20260507085024 | 18 | 230 | 3.2 | 6.4 | 0.00 | 10.11 | 0.00 | 82 | 1012.5 |
| 20260507084525 | 18 | 231 | 0.0 | 3.2 | 0.00 | 10.11 | 0.00 | 86 | 1012.5 |
| 20260507084023 | 18 | 231 | 0.0 | 4.8 | 0.00 | 10.11 | 0.00 | 86 | 1012.4 |
| 20260507083531 | 18 | 231 | 1.6 | 4.8 | 0.00 | 10.11 | 0.00 | 83 | 1012.5 |
| 20260507083023 | 18 | 230 | 1.6 | 6.4 | 0.00 | 10.11 | 0.00 | 83 | 1012.5 |
| 20260507082527 | 18 | 229 | 1.6 | 6.4 | 0.00 | 10.11 | 0.00 | 83 | 1012.4 |
| 20260507082026 | 18 | 229 | 1.6 | 6.4 | 0.00 | 10.11 | 0.00 | 81 | 1012.4 |
| 20260507081529 | 18 | 229 | 3.2 | 6.4 | 0.00 | 10.11 | 0.00 | 82 | 1012.4 |
| 20260507081031 | 18 | 232 | 1.6 | 6.4 | 0.00 | 10.11 | 0.00 | 84 | 1012.3 |
| 20260507080512 | 17 | 235 | 1.6 | 6.4 | 0.00 | 10.11 | 0.00 | 84 | 1012.3 |
| 20260507080024 | 17 | 236 | 3.2 | 6.4 | 0.00 | 11.40 | 0.00 | 85 | 1012.3 |
| 20260507075528 | 17 | 236 | 3.2 | 6.4 | 0.00 | 11.40 | 0.00 | 85 | 1012.3 |
| 20260507075030 | 17 | 232 | 3.2 | 8.0 | 0.00 | 11.40 | 0.00 | 85 | 1012.2 |
| 20260507074515 | 17 | 231 | 3.2 | 8.0 | 0.00 | 11.40 | 0.00 | 84 | 1012.3 |
| 20260507074015 | 18 | 247 | 1.6 | 4.8 | 0.00 | 11.40 | 0.00 | 84 | 1012.2 |
| 20260507073522 | 18 | 248 | 3.2 | 6.4 | 0.00 | 11.40 | 0.00 | 84 | 1012.2 |
| 20260507073015 | 18 | 248 | 1.6 | 6.4 | 0.00 | 11.40 | 0.00 | 84 | 1012.2 |
| 20260507072518 | 18 | 251 | 3.2 | 9.7 | 0.00 | 11.40 | 0.00 | 84 | 1012.2 |
| 20260507072018 | 17 | 263 | 3.2 | 9.7 | 0.00 | 11.40 | 0.00 | 84 | 1012.2 |
| 20260507071541 | 17 | 279 | 3.2 | 8.0 | 0.00 | 11.40 | 0.00 | 87 | 1012.1 |
| 20260507071019 | 17 | 288 | 0.0 | 3.2 | 0.00 | 11.40 | 0.00 | 89 | 1012.1 |
| 20260507070524 | 17 | 288 | 1.6 | 3.2 | 0.00 | 11.40 | 0.00 | 89 | 1012.0 |
| 20260507070015 | 16 | 287 | 1.6 | 3.2 | 0.00 | 16.31 | 0.00 | 90 | 1012.1 |
| 20260507065516 | 16 | 288 | 0.0 | 3.2 | 0.00 | 16.31 | 0.00 | 92 | 1012.1 |
| 20260507065015 | 16 | 288 | 0.0 | 3.2 | 0.00 | 16.31 | 0.00 | 92 | 1012.1 |
| 20260507064518 | 16 | 288 | 1.6 | 3.2 | 0.00 | 16.31 | 0.00 | 92 | 1012.0 |
| 20260507064016 | 16 | 288 | 1.6 | 4.8 | 0.00 | 16.31 | 0.00 | 92 | 1012.0 |
| 20260507063541 | 15 | 288 | 3.2 | 4.8 | 0.00 | 16.31 | 0.00 | 93 | 1012.0 |
| 20260507063032 | 15 | 285 | 3.2 | 4.8 | 0.00 | 16.31 | 0.00 | 94 | 1011.9 |
| 20260507062515 | 15 | 283 | 0.0 | 1.6 | 0.00 | 16.31 | 0.00 | 94 | 1011.9 |
| 20260507062013 | 15 | 283 | 0.0 | 1.6 | 0.00 | 16.31 | 0.00 | 94 | 1011.9 |
| 20260507061518 | 15 | 283 | 0.0 | 0.0 | 0.00 | 16.31 | 0.00 | 94 | 1011.9 |
| 20260507061019 | 15 | 283 | 0.0 | 0.0 | 0.00 | 16.31 | 0.00 | 94 | 1012.0 |
| 20260507060524 | 15 | 283 | 0.0 | 3.2 | 0.00 | 16.31 | 0.00 | 94 | 1012.0 |
| 20260507060015 | 15 | 283 | 0.0 | 4.8 | 0.00 | 16.31 | 0.00 | 94 | 1012.1 |
| 20260507055538 | 15 | 283 | 1.6 | 4.8 | 0.00 | 16.31 | 0.00 | 94 | 1012.0 |
| 20260507055039 | 15 | 283 | 1.6 | 6.4 | 0.00 | 16.31 | 0.00 | 95 | 1011.8 |
| 20260507054539 | 15 | 283 | 3.2 | 6.4 | 0.00 | 16.31 | 0.00 | 95 | 1011.8 |
| 20260507054022 | 15 | 279 | 1.6 | 4.8 | 0.00 | 16.31 | 0.00 | 95 | 1011.8 |
| 20260507053544 | 14 | 279 | 1.6 | 3.2 | 0.00 | 16.31 | 0.00 | 95 | 1011.7 |
| 20260507053015 | 14 | 279 | 1.6 | 4.8 | 0.00 | 16.31 | 0.00 | 95 | 1011.7 |
| 20260507052540 | 14 | 279 | 1.6 | 6.4 | 0.00 | 16.31 | 0.00 | 94 | 1011.7 |
| 20260507052020 | 14 | 278 | 3.2 | 6.4 | 0.00 | 16.31 | 0.00 | 94 | 1011.7 |
| 20260507051523 | 14 | 273 | 3.2 | 6.4 | 0.00 | 16.31 | 0.00 | 94 | 1011.6 |
| 20260507051022 | 14 | 270 | 3.2 | 6.4 | 0.00 | 16.31 | 0.00 | 94 | 1011.5 |
| 20260507050546 | 14 | 267 | 0.0 | 3.2 | 0.00 | 16.31 | 0.00 | 95 | 1011.5 |
| 20260507050016 | 14 | 267 | 0.0 | 3.2 | 0.00 | 16.31 | 0.00 | 94 | 1011.4 |
| 20260507045540 | 14 | 267 | 0.0 | 3.2 | 0.00 | 16.31 | 0.00 | 94 | 1011.3 |
| 20260507045019 | 14 | 267 | 0.0 | 4.8 | 0.00 | 16.31 | 0.00 | 94 | 1011.3 |
| 20260507044522 | 14 | 267 | 3.2 | 4.8 | 0.00 | 16.31 | 0.00 | 94 | 1011.2 |
| 20260507044019 | 14 | 265 | 1.6 | 4.8 | 0.00 | 16.31 | 0.00 | 94 | 1011.2 |
| 20260507043542 | 14 | 264 | 0.0 | 3.2 | 0.00 | 16.31 | 0.00 | 94 | 1011.2 |
| 20260507043031 | 14 | 264 | 1.6 | 3.2 | 0.00 | 16.31 | 0.00 | 94 | 1011.1 |
| 20260507042514 | 14 | 264 | 0.0 | 3.2 | 0.00 | 16.31 | 0.00 | 94 | 1011.1 |
| 20260507042033 | 14 | 264 | 0.0 | 1.6 | 0.00 | 16.31 | 0.00 | 94 | 1011.0 |
| 20260507041516 | 14 | 264 | 0.0 | 1.6 | 0.00 | 16.31 | 0.00 | 94 | 1011.1 |
| 20260507041035 | 14 | 264 | 0.0 | 3.2 | 0.00 | 16.31 | 0.00 | 94 | 1011.0 |
| 20260507040516 | 15 | 264 | 1.6 | 4.8 | 0.00 | 16.31 | 0.00 | 94 | 1010.9 |
| 20260507040027 | 15 | 263 | 0.0 | 6.4 | 0.00 | 16.31 | 0.00 | 94 | 1010.9 |
| 20260507035529 | 15 | 262 | 1.6 | 4.8 | 0.00 | 16.31 | 0.00 | 94 | 1010.9 |
| 20260507035014 | 15 | 262 | 0.0 | 4.8 | 0.00 | 16.31 | 0.00 | 94 | 1010.8 |
| 20260507034516 | 15 | 261 | 3.2 | 4.8 | 0.00 | 16.31 | 0.00 | 94 | 1010.8 |
| 20260507034016 | 15 | 260 | 0.0 | 4.8 | 0.00 | 16.31 | 0.00 | 94 | 1010.8 |
| 20260507033518 | 15 | 260 | 1.6 | 6.4 | 0.00 | 16.31 | 0.00 | 94 | 1010.7 |
| 20260507033029 | 15 | 259 | 3.2 | 6.4 | 0.00 | 16.31 | 0.00 | 94 | 1010.8 |
| 20260507032552 | 15 | 257 | 0.0 | 1.6 | 0.00 | 16.31 | 0.00 | 94 | 1010.8 |
| 20260507032030 | 15 | 257 | 0.0 | 0.0 | 0.00 | 16.31 | 0.00 | 94 | 1010.9 |
| 20260507031514 | 15 | 257 | 0.0 | 0.0 | 0.00 | 16.31 | 0.00 | 94 | 1010.8 |
| 20260507031013 | 15 | 257 | 0.0 | 1.6 | 0.00 | 16.31 | 0.00 | 94 | 1010.8 |
| 20260507030515 | 15 | 257 | 0.0 | 1.6 | 0.00 | 16.31 | 0.00 | 94 | 1010.8 |
| 20260507030048 | 15 | 257 | 0.0 | 3.2 | 0.00 | 16.41 | 0.00 | 94 | 1010.8 |
| 20260507025528 | 15 | 257 | 1.6 | 11.3 | 0.00 | 16.41 | 0.00 | 94 | 1010.7 |
| 20260507025029 | 15 | 257 | 4.8 | 11.3 | 0.00 | 16.41 | 0.00 | 94 | 1010.8 |
| 20260507024532 | 15 | 262 | 3.2 | 4.8 | 0.00 | 16.41 | 0.00 | 94 | 1010.7 |
| 20260507024032 | 15 | 261 | 0.0 | 4.8 | 0.00 | 16.41 | 0.00 | 94 | 1010.7 |
| 20260507023535 | 15 | 261 | 3.2 | 11.3 | 0.00 | 16.41 | 0.00 | 94 | 1010.7 |
| 20260507023026 | 15 | 261 | 4.8 | 11.3 | 0.00 | 16.41 | 0.00 | 95 | 1010.7 |
| 20260507022529 | 15 | 256 | 4.8 | 11.3 | 0.00 | 16.41 | 0.00 | 95 | 1010.7 |
| 20260507022014 | 15 | 252 | 6.4 | 11.3 | 0.00 | 16.41 | 0.00 | 95 | 1010.7 |
| 20260507021517 | 15 | 250 | 4.8 | 11.3 | 0.00 | 16.41 | 0.00 | 95 | 1010.7 |
| 20260507021016 | 15 | 246 | 3.2 | 6.4 | 0.00 | 16.41 | 0.00 | 95 | 1010.6 |
| 20260507020517 | 15 | 246 | 1.6 | 6.4 | 0.00 | 16.41 | 0.00 | 95 | 1010.7 |
| 20260507020029 | 15 | 246 | 3.2 | 6.4 | 0.00 | 16.61 | 0.00 | 95 | 1010.7 |
| 20260507015552 | 15 | 244 | 1.6 | 3.2 | 0.00 | 16.61 | 0.00 | 95 | 1010.7 |
| 20260507015031 | 15 | 244 | 1.6 | 3.2 | 0.00 | 16.61 | 0.00 | 95 | 1010.7 |
| 20260507014533 | 15 | 244 | 0.0 | 6.4 | 0.00 | 16.61 | 0.00 | 95 | 1010.7 |
| 20260507014031 | 15 | 244 | 1.6 | 6.4 | 0.00 | 16.61 | 0.00 | 95 | 1010.7 |
| 20260507013536 | 15 | 243 | 1.6 | 8.0 | 0.00 | 16.61 | 0.00 | 95 | 1010.8 |
| 20260507013025 | 15 | 244 | 3.2 | 8.0 | 0.00 | 16.61 | 0.00 | 95 | 1010.8 |
| 20260507012529 | 15 | 242 | 1.6 | 3.2 | 0.00 | 16.61 | 0.00 | 95 | 1010.7 |
| 20260507012030 | 15 | 242 | 0.0 | 1.6 | 0.00 | 16.61 | 0.00 | 95 | 1010.6 |
| 20260507011533 | 15 | 242 | 0.0 | 1.6 | 0.00 | 16.61 | 0.00 | 95 | 1010.7 |
| 20260507011033 | 15 | 242 | 0.0 | 3.2 | 0.00 | 16.61 | 0.00 | 95 | 1010.7 |
| 20260507010518 | 15 | 242 | 1.6 | 4.8 | 0.00 | 16.61 | 0.00 | 95 | 1010.7 |
| 20260507010030 | 15 | 242 | 1.6 | 4.8 | 0.00 | 22.40 | 0.00 | 95 | 1010.6 |
| 20260507005554 | 15 | 242 | 0.0 | 1.6 | 0.00 | 22.40 | 0.00 | 95 | 1010.6 |
| 20260507005013 | 15 | 242 | 0.0 | 1.6 | 0.00 | 22.40 | 0.00 | 95 | 1010.7 |
| 20260507004536 | 15 | 242 | 0.0 | 3.2 | 0.00 | 22.40 | 0.00 | 95 | 1010.6 |
| 20260507004017 | 15 | 242 | 0.0 | 3.2 | 0.00 | 22.40 | 0.00 | 95 | 1010.6 |
| 20260507003521 | 15 | 242 | 1.6 | 3.2 | 0.00 | 22.40 | 0.00 | 95 | 1010.7 |
| 20260507003014 | 15 | 242 | 0.0 | 3.2 | 0.00 | 22.40 | 0.00 | 95 | 1010.7 |
| 20260507002516 | 15 | 242 | 1.6 | 8.0 | 0.00 | 22.40 | 0.00 | 95 | 1010.7 |
| 20260507002015 | 15 | 242 | 1.6 | 8.0 | 0.00 | 22.40 | 0.00 | 95 | 1010.8 |
| 20260507001518 | 15 | 242 | 1.6 | 6.4 | 0.00 | 22.40 | 0.00 | 95 | 1010.8 |
| 20260507001018 | 15 | 242 | 1.6 | 6.4 | 0.00 | 22.40 | 0.00 | 95 | 1010.8 |
| 20260507000522 | 15 | 242 | 0.0 | 0.0 | 0.00 | 22.40 | 0.00 | 95 | 1010.8 |
| 20260507000014 | 15 | 242 | 0.0 | 0.0 | 0.00 | 24.79 | 0.00 | 95 | 1010.8 |
| 20260506235518 | 15 | 242 | 0.0 | 1.6 | 0.00 | 24.79 | 0.00 | 95 | 1010.8 |
| 20260506235018 | 15 | 242 | 0.0 | 3.2 | 0.00 | 24.79 | 0.00 | 95 | 1010.8 |
| 20260506234525 | 15 | 242 | 0.0 | 3.2 | 0.00 | 24.79 | 0.00 | 95 | 1010.8 |
| 20260506234026 | 15 | 242 | 0.0 | 3.2 | 0.00 | 24.79 | 0.00 | 95 | 1010.9 |
| 20260506233529 | 15 | 242 | 0.0 | 4.8 | 0.00 | 24.79 | 0.00 | 95 | 1010.9 |
| 20260506233020 | 15 | 242 | 3.2 | 6.4 | 0.00 | 24.79 | 0.00 | 95 | 1010.9 |
| 20260506232525 | 15 | 242 | 4.8 | 6.4 | 0.00 | 24.79 | 0.00 | 94 | 1011.0 |
| 20260506232045 | 15 | 243 | 1.6 | 3.2 | 0.00 | 24.79 | 0.00 | 94 | 1011.0 |
| 20260506231526 | 15 | 243 | 0.0 | 4.8 | 0.00 | 24.79 | 0.00 | 94 | 1011.1 |
| 20260506231047 | 15 | 243 | 1.6 | 4.8 | 0.00 | 24.79 | 0.00 | 94 | 1011.1 |
| 20260506230530 | 15 | 243 | 1.6 | 4.8 | 0.00 | 24.79 | 0.00 | 94 | 1011.1 |
| 20260506230022 | 15 | 243 | 0.0 | 3.2 | 0.00 | 24.79 | 0.00 | 94 | 1011.2 |
| 20260506225525 | 15 | 243 | 0.0 | 3.2 | 0.00 | 24.79 | 0.00 | 94 | 1011.2 |
| 20260506225024 | 15 | 243 | 0.0 | 3.2 | 0.00 | 24.79 | 0.00 | 94 | 1011.1 |
| 20260506224548 | 15 | 243 | 0.0 | 4.8 | 0.00 | 24.79 | 0.00 | 94 | 1011.1 |
| 20260506224026 | 15 | 243 | 1.6 | 8.0 | 0.00 | 24.79 | 0.00 | 94 | 1011.0 |
| 20260506223529 | 15 | 243 | 3.2 | 8.0 | 0.00 | 24.79 | 0.00 | 94 | 1011.0 |
| 20260506223019 | 15 | 239 | 3.2 | 12.9 | 0.00 | 24.79 | 0.00 | 94 | 1010.9 |
| 20260506222542 | 15 | 237 | 4.8 | 12.9 | 0.00 | 24.79 | 0.00 | 95 | 1011.0 |
| 20260506222021 | 15 | 229 | 3.2 | 8.0 | 0.10 | 24.79 | 0.00 | 95 | 1011.0 |
| 20260506221529 | 15 | 226 | 3.2 | 6.4 | 0.10 | 24.79 | 0.00 | 95 | 1011.0 |
| 20260506221031 | 15 | 225 | 3.2 | 4.8 | 0.10 | 24.79 | 0.00 | 95 | 1010.9 |
| 20260506220515 | 15 | 225 | 3.2 | 4.8 | 0.10 | 24.79 | 0.00 | 95 | 1010.9 |
| 20260506220028 | 15 | 225 | 0.0 | 6.4 | 0.10 | 24.79 | 6.30 | 95 | 1010.9 |
| 20260506215532 | 15 | 225 | 1.6 | 4.8 | 0.10 | 24.79 | 6.30 | 95 | 1010.9 |
| 20260506215053 | 15 | 225 | 0.0 | 3.2 | 0.10 | 24.79 | 6.30 | 95 | 1010.9 |
| 20260506214516 | 15 | 225 | 1.6 | 4.8 | 0.10 | 24.79 | 6.30 | 94 | 1010.9 |
| 20260506214033 | 15 | 225 | 1.6 | 4.8 | 0.10 | 24.79 | 6.30 | 94 | 1010.9 |
| 20260506213516 | 15 | 225 | 1.6 | 4.8 | 0.10 | 24.79 | 6.30 | 94 | 1010.9 |
| 20260506213027 | 15 | 225 | 1.6 | 4.8 | 0.10 | 24.79 | 6.30 | 94 | 1010.9 |
| 20260506212532 | 15 | 225 | 3.2 | 4.8 | 0.10 | 24.79 | 6.30 | 94 | 1010.9 |
| 20260506212013 | 15 | 225 | 1.6 | 3.2 | 0.00 | 24.69 | 6.27 | 94 | 1010.9 |
| 20260506211517 | 15 | 225 | 0.0 | 1.6 | 0.00 | 24.69 | 6.27 | 94 | 1010.9 |
| 20260506211021 | 15 | 225 | 1.6 | 4.8 | 0.00 | 24.69 | 6.27 | 94 | 1011.0 |
| 20260506210521 | 15 | 225 | 1.6 | 4.8 | 0.00 | 24.69 | 6.27 | 94 | 1011.0 |
| 20260506210033 | 15 | 225 | 1.6 | 4.8 | 0.00 | 24.69 | 6.27 | 94 | 1011.0 |
| 20260506205515 | 15 | 225 | 1.6 | 4.8 | 0.00 | 24.69 | 6.27 | 94 | 1011.0 |
| 20260506205015 | 15 | 225 | 1.6 | 6.4 | 0.00 | 24.69 | 6.27 | 94 | 1011.0 |
| 20260506204519 | 15 | 225 | 1.6 | 6.4 | 0.00 | 24.69 | 6.27 | 94 | 1011.0 |
| 20260506204017 | 15 | 225 | 1.6 | 3.2 | 0.00 | 24.69 | 6.27 | 94 | 1011.0 |
| 20260506203521 | 15 | 225 | 1.6 | 3.2 | 0.00 | 24.69 | 6.27 | 94 | 1011.0 |
| 20260506203013 | 15 | 225 | 1.6 | 4.8 | 0.00 | 24.69 | 6.27 | 94 | 1011.0 |
| 20260506202516 | 15 | 225 | 1.6 | 4.8 | 0.00 | 24.69 | 6.27 | 94 | 1011.0 |
| 20260506202015 | 15 | 225 | 1.6 | 4.8 | 0.00 | 24.69 | 6.27 | 94 | 1011.0 |
| 20260506201517 | 15 | 225 | 1.6 | 6.4 | 0.00 | 24.69 | 6.27 | 94 | 1011.0 |
| 20260506201015 | 15 | 225 | 1.6 | 6.4 | 0.00 | 24.69 | 6.27 | 94 | 1010.9 |
| 20260506200538 | 15 | 224 | 3.2 | 6.4 | 0.00 | 24.69 | 6.27 | 94 | 1010.8 |
| 20260506200029 | 15 | 224 | 4.8 | 6.4 | 0.00 | 24.79 | 6.27 | 94 | 1010.8 |
| 20260506195530 | 15 | 225 | 3.2 | 6.4 | 0.00 | 24.79 | 6.27 | 94 | 1010.7 |
| 20260506195014 | 15 | 224 | 1.6 | 3.2 | 0.00 | 24.79 | 6.27 | 94 | 1010.6 |
| 20260506194516 | 15 | 224 | 0.0 | 3.2 | 0.00 | 24.79 | 6.27 | 94 | 1010.6 |
| 20260506194016 | 15 | 224 | 1.6 | 3.2 | 0.00 | 24.79 | 6.27 | 94 | 1010.5 |
| 20260506193519 | 15 | 224 | 1.6 | 3.2 | 0.41 | 24.79 | 6.27 | 94 | 1010.4 |
| 20260506193033 | 16 | 224 | 1.6 | 3.2 | 0.79 | 24.79 | 6.27 | 94 | 1010.3 |
| 20260506192536 | 16 | 224 | 1.6 | 4.8 | 1.30 | 24.79 | 6.27 | 94 | 1010.3 |
| 20260506192014 | 16 | 224 | 3.2 | 4.8 | 1.40 | 24.79 | 6.27 | 94 | 1010.2 |
| 20260506191517 | 16 | 223 | 3.2 | 8.0 | 1.60 | 24.79 | 6.27 | 94 | 1010.1 |
| 20260506191036 | 16 | 223 | 1.6 | 8.0 | 2.69 | 24.79 | 6.27 | 94 | 1010.0 |
| 20260506190519 | 16 | 222 | 3.2 | 6.4 | 2.90 | 24.79 | 6.27 | 94 | 1009.9 |
| 20260506190032 | 16 | 222 | 1.6 | 9.7 | 2.90 | 24.99 | 6.27 | 94 | 1009.8 |
| 20260506185513 | 16 | 218 | 4.8 | 9.7 | 2.90 | 24.99 | 6.27 | 95 | 1009.7 |
| 20260506185013 | 15 | 216 | 3.2 | 8.0 | 2.90 | 24.99 | 6.27 | 94 | 1009.6 |
| 20260506184536 | 15 | 216 | 1.6 | 6.4 | 2.90 | 24.99 | 6.27 | 94 | 1009.5 |
| 20260506184033 | 15 | 216 | 1.6 | 4.8 | 2.90 | 24.99 | 6.27 | 94 | 1009.3 |
| 20260506183515 | 15 | 215 | 0.0 | 1.6 | 2.49 | 24.61 | 6.17 | 94 | 1009.4 |
| 20260506183048 | 15 | 215 | 1.6 | 1.6 | 2.11 | 24.21 | 6.07 | 94 | 1009.5 |
| 20260506182530 | 15 | 215 | 0.0 | 3.2 | 1.60 | 23.70 | 5.94 | 94 | 1009.2 |
| 20260506182030 | 15 | 215 | 1.6 | 3.2 | 1.50 | 23.60 | 5.92 | 94 | 1009.4 |
| 20260506181534 | 15 | 215 | 0.0 | 3.2 | 1.19 | 23.29 | 5.84 | 94 | 1009.6 |
| 20260506181013 | 16 | 215 | 0.0 | 0.0 | 0.10 | 22.20 | 5.56 | 94 | 1009.6 |
| 20260506180518 | 15 | 215 | 0.0 | 1.6 | 0.10 | 22.10 | 5.54 | 94 | 1009.7 |
| 20260506180013 | 16 | 215 | 0.0 | 1.6 | 0.20 | 22.20 | 5.54 | 94 | 1009.7 |
| 20260506175516 | 16 | 215 | 0.0 | 1.6 | 2.90 | 22.20 | 5.54 | 93 | 1009.6 |
| 20260506175037 | 16 | 215 | 0.0 | 3.2 | 3.61 | 22.20 | 5.54 | 93 | 1009.6 |
| 20260506174520 | 16 | 215 | 1.6 | 3.2 | 3.71 | 22.20 | 5.54 | 93 | 1009.7 |
| 20260506174019 | 16 | 215 | 1.6 | 3.2 | 3.71 | 22.20 | 5.54 | 93 | 1009.6 |
| 20260506173522 | 16 | 215 | 1.6 | 4.8 | 3.71 | 22.20 | 5.54 | 93 | 1009.6 |
| 20260506173013 | 16 | 215 | 3.2 | 8.0 | 3.71 | 22.20 | 5.54 | 92 | 1009.6 |
| 20260506172516 | 16 | 215 | 3.2 | 9.7 | 3.71 | 22.20 | 5.54 | 92 | 1009.5 |
| 20260506172017 | 16 | 215 | 4.8 | 16.1 | 3.71 | 22.20 | 5.54 | 92 | 1009.5 |
| 20260506171519 | 16 | 214 | 6.4 | 25.7 | 3.71 | 22.20 | 5.54 | 92 | 1009.4 |
| 20260506171019 | 16 | 194 | 12.9 | 25.7 | 3.71 | 22.20 | 5.54 | 92 | 1009.2 |
| 20260506170522 | 16 | 200 | 4.8 | 12.9 | 3.61 | 22.10 | 5.51 | 93 | 1009.2 |
| 20260506170014 | 16 | 200 | 6.4 | 12.9 | 3.40 | 22.61 | 5.49 | 93 | 1009.1 |
| 20260506165516 | 16 | 240 | 0.0 | 0.0 | 0.61 | 19.81 | 4.75 | 94 | 1008.9 |
| 20260506165014 | 16 | 240 | 0.0 | 0.0 | 0.10 | 19.30 | 4.62 | 94 | 1008.7 |
| 20260506164522 | 16 | 240 | 0.0 | 0.0 | 0.00 | 19.20 | 4.60 | 93 | 1008.7 |
| 20260506164024 | 16 | 240 | 0.0 | 0.0 | 0.00 | 19.20 | 4.60 | 93 | 1008.7 |
| 20260506163528 | 16 | 240 | 0.0 | 0.0 | 0.00 | 19.20 | 4.60 | 93 | 1008.8 |
| 20260506163042 | 16 | 240 | 0.0 | 0.0 | 0.00 | 19.20 | 4.60 | 93 | 1008.9 |
| 20260506162523 | 16 | 240 | 0.0 | 0.0 | 0.00 | 19.20 | 4.60 | 93 | 1009.1 |
| 20260506162024 | 16 | 240 | 0.0 | 0.0 | 0.00 | 19.20 | 4.60 | 93 | 1009.1 |
| 20260506161549 | 16 | 240 | 0.0 | 0.0 | 0.00 | 19.20 | 4.60 | 93 | 1009.1 |
| 20260506161029 | 16 | 240 | 0.0 | 0.0 | 0.00 | 19.20 | 4.60 | 94 | 1009.1 |
| 20260506160513 | 16 | 240 | 0.0 | 0.0 | 0.00 | 19.20 | 4.60 | 94 | 1009.2 |
| 20260506160026 | 16 | 240 | 0.0 | 1.6 | 0.00 | 19.61 | 4.60 | 94 | 1009.2 |
| 20260506155530 | 16 | 240 | 0.0 | 1.6 | 0.00 | 19.61 | 4.60 | 94 | 1009.2 |
| 20260506155031 | 16 | 240 | 0.0 | 0.0 | 0.00 | 19.61 | 4.60 | 94 | 1009.3 |
| 20260506154515 | 16 | 240 | 0.0 | 0.0 | 0.00 | 19.61 | 4.60 | 94 | 1009.4 |
| 20260506154016 | 16 | 240 | 0.0 | 0.0 | 0.00 | 19.61 | 4.60 | 94 | 1009.4 |
| 20260506153518 | 16 | 240 | 0.0 | 0.0 | 0.00 | 19.61 | 4.60 | 94 | 1009.5 |
| 20260506153013 | 16 | 240 | 0.0 | 0.0 | 0.00 | 19.61 | 4.60 | 94 | 1009.6 |
| 20260506152515 | 16 | 240 | 0.0 | 0.0 | 0.00 | 19.61 | 4.60 | 94 | 1009.7 |
| 20260506152035 | 16 | 240 | 0.0 | 1.6 | 0.00 | 19.61 | 4.60 | 94 | 1009.7 |